Weather History for KHDE - August, 2013

Change the Weather History Date:

Thursday, August 22, 2013

  Actual Average Record
Temperature  
Mean Temperature 76 °F -  
Max Temperature 84 °F 86 °F 103 °F (1948)
Min Temperature 68 °F 61 °F 46 °F (1966)
Cooling Degree Days 10    
Growing Degree Days 26 (Base 50)    
Moisture  
Dew Point 66 °F    
Average Humidity 70    
Maximum Humidity 91    
Minimum Humidity 50    
Precipitation  
Precipitation 0.00 in - - ()
Sea Level Pressure  
Sea Level Pressure 30.05 in    
Wind  
Wind Speed 12 mph (East)    
Max Wind Speed 23 mph    
Max Gust Speed 29 mph    
Visibility 9 miles    
Events Rain , Thunderstorm    
Averages and records for this station are not official NWS values.
T = Trace of Precipitation, MM = Missing Value Source: NWS Daily Summary

Daily Weather History Graph

Daily Weather History Graph

Search for Another Location

Airport or City:

Trip Planner

Search our weather history database for the weather conditions in past years. The results will help you decide how hot, cold, wet, or windy it might be!

Date:

Astronomy

Aug. 22, 2013 Rise Set
Actual Time 6:55 AM CDT 8:24 PM CDT
Civil Twilight 6:26 AM CDT 8:52 PM CDT
Nautical Twilight 5:52 AM CDT 9:27 PM CDT
Astronomical Twilight 5:15 AM CDT 10:03 PM CDT
Moon 9:08 PM CDT (8/22) 8:46 AM CDT (8/22)
Length of Visible Light 14h 26m
Length of Day
13h 29m
Waning Gibbous, 96% of the Moon is Illuminated
Aug 22
Waning Gibbous
Aug 28
Last Quarter
Sep 5
New
Sep 12
First Quarter
Sep 19
Full

Hourly Weather History & Observations

Time (CDT) Temp. Heat Index Dew Point Humidity Pressure Visibility Wind Dir Wind Speed Gust Speed Precip Events Conditions
12:15 AM 79.7 °F - 59.4 °F 50% 29.98 in 10.0 mi South 11.5 mph - N/A   Clear
12:35 AM 79.2 °F - 59.2 °F 50% 29.97 in 10.0 mi South 12.7 mph - N/A   Clear
12:55 AM 78.8 °F - 59.0 °F 51% 29.96 in 10.0 mi South 15.0 mph 19.6 mph N/A   Clear
1:15 AM 78.4 °F - 58.5 °F 50% 29.96 in 10.0 mi South 15.0 mph 21.9 mph N/A   Clear
1:35 AM 78.4 °F - 58.5 °F 50% 29.97 in 10.0 mi SSW 11.5 mph 18.4 mph N/A   Clear
1:55 AM 77.0 °F - 58.5 °F 53% 29.96 in 10.0 mi SW 8.1 mph - N/A   Clear
2:15 AM 76.5 °F - 58.6 °F 54% 29.98 in 10.0 mi SW 5.8 mph - N/A Thunderstorm Clear
2:35 AM 76.5 °F - 58.6 °F 54% 29.99 in 10.0 mi NE 6.9 mph - N/A   Scattered Clouds
2:55 AM 74.5 °F - 61.3 °F 63% 30.03 in 10.0 mi NNE 13.8 mph - N/A Rain Light Rain
3:15 AM 72.5 °F - 62.6 °F 71% 30.04 in 10.0 mi ENE 9.2 mph - N/A   Mostly Cloudy
3:35 AM 73.2 °F - 61.9 °F 68% 30.04 in 10.0 mi East 8.1 mph - N/A   Mostly Cloudy
3:55 AM 70.7 °F - 63.5 °F 78% 30.05 in 10.0 mi East 9.2 mph - N/A Thunderstorm Scattered Clouds
4:15 AM 70.3 °F - 65.1 °F 83% 30.06 in 10.0 mi East 13.8 mph - N/A   Scattered Clouds
4:35 AM 70.7 °F - 65.5 °F 83% 30.06 in 10.0 mi East 11.5 mph - N/A   Mostly Cloudy
4:55 AM 70.2 °F - 65.7 °F 86% 30.06 in 10.0 mi ESE 13.8 mph - N/A   Overcast
5:15 AM 70.0 °F - 65.7 °F 86% 30.07 in 10.0 mi East 10.4 mph - N/A   Overcast
5:35 AM 70.2 °F - 65.3 °F 85% 30.07 in 10.0 mi East 18.4 mph 21.9 mph N/A   Overcast
5:55 AM 69.3 °F - 65.7 °F 88% 30.06 in 10.0 mi ESE 19.6 mph 27.6 mph N/A   Scattered Clouds
6:15 AM 69.3 °F - 65.8 °F 89% 30.06 in 10.0 mi ESE 19.6 mph - N/A   Scattered Clouds
6:35 AM 69.3 °F - 66.0 °F 89% 30.05 in 7.0 mi ESE 23.0 mph 28.8 mph N/A   Mostly Cloudy
6:55 AM 69.1 °F - 66.2 °F 91% 30.05 in 7.0 mi ESE 20.7 mph 26.5 mph N/A   Scattered Clouds
7:15 AM 68.9 °F - 66.2 °F 91% 30.04 in 4.0 mi ESE 19.6 mph 26.5 mph N/A   Scattered Clouds
7:35 AM 68.9 °F - 66.2 °F 91% 30.05 in 5.0 mi ESE 13.8 mph 24.2 mph N/A   Scattered Clouds
7:55 AM 68.9 °F - 66.2 °F 91% 30.04 in 5.0 mi ESE 12.7 mph 17.3 mph N/A   Scattered Clouds
8:15 AM 69.1 °F - 66.2 °F 91% 30.04 in 7.0 mi ESE 10.4 mph - N/A   Clear
8:35 AM 70.2 °F - 66.4 °F 88% 30.04 in 10.0 mi ESE 10.4 mph - N/A   Clear
8:55 AM 71.8 °F - 66.2 °F 83% 30.05 in 10.0 mi SE 11.5 mph - N/A   Clear
9:15 AM 73.4 °F - 65.8 °F 77% 30.05 in 10.0 mi SE 9.2 mph - N/A   Clear
9:35 AM 74.5 °F - 64.9 °F 72% 30.05 in 10.0 mi SE 11.5 mph - N/A   Clear
9:55 AM 75.9 °F - 64.8 °F 68% 30.05 in 10.0 mi SSE 10.4 mph - N/A   Clear
10:15 AM 76.8 °F - 64.6 °F 66% 30.05 in 10.0 mi SE 9.2 mph - N/A   Clear
10:35 AM 77.5 °F - 64.6 °F 64% 30.05 in 10.0 mi SE 10.4 mph - N/A   Clear
10:55 AM 79.0 °F - 63.7 °F 59% 30.07 in 10.0 mi ESE 6.9 mph - N/A   Clear
11:15 AM 78.3 °F - 63.7 °F 61% 30.08 in 10.0 mi East 6.9 mph - N/A   Clear
11:35 AM 79.2 °F - 64.6 °F 61% 30.08 in 10.0 mi East 8.1 mph - N/A   Clear
11:55 AM 80.1 °F 81.8 °F 64.8 °F 59% 30.08 in 10.0 mi NE 6.9 mph - N/A   Clear
12:15 PM 79.9 °F - 64.9 °F 60% 30.08 in 10.0 mi East 8.1 mph - N/A   Clear
12:35 PM 81.7 °F 83.5 °F 65.3 °F 57% 30.07 in 10.0 mi NE 10.4 mph - N/A   Clear
12:55 PM 81.9 °F 83.5 °F 64.9 °F 56% 30.08 in 10.0 mi ENE 8.1 mph - N/A   Clear
1:15 PM 82.4 °F 84.4 °F 65.7 °F 57% 30.08 in 10.0 mi ENE 10.4 mph - N/A   Clear
1:35 PM 82.4 °F 84.6 °F 66.2 °F 58% 30.08 in 10.0 mi ENE 8.1 mph - N/A   Clear
1:55 PM 82.4 °F 84.8 °F 66.6 °F 59% 30.07 in 10.0 mi NE 12.7 mph - N/A   Scattered Clouds
2:15 PM 83.1 °F 85.4 °F 66.6 °F 57% 30.07 in 10.0 mi ENE 12.7 mph - N/A   Scattered Clouds
2:35 PM 83.5 °F 86.0 °F 66.6 °F 57% 30.07 in 10.0 mi NE 12.7 mph 19.6 mph N/A   Clear
2:55 PM 83.7 °F 86.0 °F 66.6 °F 56% 30.07 in 10.0 mi NE 10.4 mph - N/A   Clear
3:15 PM 83.8 °F 86.3 °F 66.4 °F 56% 30.07 in 10.0 mi NE 13.8 mph - N/A   Scattered Clouds
3:35 PM 82.6 °F 85.3 °F 67.3 °F 60% 30.07 in 10.0 mi ENE 11.5 mph - N/A   Mostly Cloudy
3:55 PM 83.3 °F 85.7 °F 66.7 °F 57% 30.06 in 10.0 mi ENE 12.7 mph - N/A   Scattered Clouds
4:15 PM 82.8 °F 85.5 °F 67.5 °F 60% 30.06 in 10.0 mi ENE 15.0 mph 19.6 mph N/A   Scattered Clouds
4:35 PM 82.6 °F 85.3 °F 67.5 °F 60% 30.06 in 10.0 mi ENE 12.7 mph - N/A   Clear
4:55 PM 82.4 °F 85.0 °F 67.5 °F 60% 30.06 in 10.0 mi ENE 12.7 mph - N/A   Clear
5:15 PM 82.8 °F 85.3 °F 67.1 °F 59% 30.05 in 10.0 mi ENE 13.8 mph - N/A   Clear
5:35 PM 82.6 °F 85.5 °F 67.8 °F 61% 30.05 in 10.0 mi ENE 10.4 mph - N/A   Clear
5:55 PM 82.2 °F 84.7 °F 67.1 °F 60% 30.05 in 10.0 mi NE 11.5 mph - N/A   Clear
6:15 PM 81.7 °F 84.2 °F 67.1 °F 61% 30.04 in 10.0 mi ENE 11.5 mph 17.3 mph N/A   Clear
6:35 PM 81.5 °F 84.2 °F 67.6 °F 63% 30.04 in 10.0 mi ENE 13.8 mph - N/A   Clear
6:55 PM 81.0 °F 83.4 °F 67.1 °F 63% 30.04 in 10.0 mi ENE 9.2 mph - N/A   Clear
7:15 PM 80.1 °F 82.6 °F 67.6 °F 66% 30.04 in 10.0 mi ENE 10.4 mph - N/A   Clear
7:35 PM 78.8 °F - 68.2 °F 70% 30.04 in 10.0 mi NE 10.4 mph - N/A   Clear
7:55 PM 77.4 °F - 68.4 °F 74% 30.03 in 10.0 mi ENE 8.1 mph - N/A   Clear
8:15 PM 76.1 °F - 68.9 °F 78% 30.04 in 10.0 mi NE 11.5 mph - N/A   Clear
8:35 PM 75.2 °F - 68.4 °F 79% 30.04 in 10.0 mi NE 10.4 mph - N/A   Clear
8:55 PM 74.3 °F - 68.0 °F 81% 30.05 in 10.0 mi NE 9.2 mph - N/A   Clear
9:15 PM 73.4 °F - 68.2 °F 84% 30.05 in 10.0 mi ENE 10.4 mph - N/A   Clear
9:35 PM 73.0 °F - 68.5 °F 86% 30.06 in 10.0 mi ENE 10.4 mph - N/A   Clear
9:55 PM 72.5 °F - 68.9 °F 88% 30.06 in 10.0 mi ENE 11.5 mph - N/A   Clear
10:15 PM 72.5 °F - 69.1 °F 89% 30.06 in 7.0 mi ENE 11.5 mph - N/A   Clear
10:35 PM 72.3 °F - 68.9 °F 89% 30.06 in 7.0 mi ENE 11.5 mph - N/A   Clear
10:55 PM 72.5 °F - 68.9 °F 88% 30.06 in 7.0 mi East 11.5 mph - N/A   Clear
11:15 PM 72.3 °F - 68.9 °F 89% 30.06 in 7.0 mi East 10.4 mph - N/A   Clear
11:35 PM 71.8 °F - 68.7 °F 90% 30.06 in 7.0 mi East 10.4 mph - N/A   Clear
11:55 PM 71.6 °F - 68.5 °F 90% 30.07 in 7.0 mi East 9.2 mph - N/A   Clear